[[[{"header":{"parameterUnit":"kt","parameterCategory":2,"dx":1,"dy":1,"la1":30.253999710083008,"la2":30.299108505249023,"lo1":-89.0895004272461,"lo2":-89.04439544677734,"nx":28,"ny":28,"refTime":"2022-10-23T21:00:00:Z","depth":0,"parameterNumber":1,"parameterNumberName":"U-component_of_WINDS"},"data":[-8.6095,-8.6205,-8.6257,-8.6408,-8.648,-8.6593,-8.6649,-8.6729,-8.6806,-8.6949,-8.7041,-8.7106,-8.7205,-8.7329,-8.7433,-8.746,-8.7499,-8.7501,-8.7532,-8.7474,-8.747,-8.7465,-8.744,-8.751,-8.751,-8.7582,-8.7583,-8.7583,-8.605,-8.6122,-8.6217,-8.6343,-8.6426,-8.6455,-8.6559,-8.6626,-8.6727,-8.6823,-8.6916,-8.7047,-8.7157,-8.7258,-8.7374,-8.7429,-8.7449,-8.7456,-8.7451,-8.7466,-8.7408,-8.738,-8.7438,-8.7438,-8.7438,-8.7438,-8.7438,-8.7438,-8.5982,-8.6047,-8.6152,-8.6256,-8.6335,-8.642,-8.6491,-8.6568,-8.6663,-8.6787,-8.6833,-8.6948,-8.7056,-8.7221,-8.729,-8.7383,-8.7384,-8.7408,-8.7414,-8.7417,-8.7414,-8.7298,-8.7406,-8.7406,-8.7406,-8.7406,-8.7406,0,-8.5947,-8.5985,-8.6079,-8.6189,-8.6268,-8.6359,-8.645,-8.6497,-8.6596,-8.6671,-8.6783,-8.6857,-8.7004,-8.7116,-8.7237,-8.7304,-8.7341,-8.7352,-8.7368,-8.7344,-8.7309,-8.7326,-8.7226,-8.7347,-8.7347,-8.7346,-8.7346,-8.7346,-8.5879,-8.5949,-8.6085,-8.6144,-8.6207,-8.6302,-8.637,-8.6452,-8.6521,-8.6647,-8.6701,-8.6816,-8.691,-8.7084,-8.7174,-8.7284,-8.7302,-8.7343,-8.7319,-8.7296,-8.73,-8.7293,-8.73,-8.7343,-8.7344,-8.7344,-8.7344,0,-8.5836,-8.5919,-8.6044,-8.6171,-8.6206,-8.6275,-8.6386,-8.6455,-8.6522,-8.6627,-8.6657,-8.6762,-8.6872,-8.6956,-8.7099,-8.714,-8.7259,-8.7276,-8.7222,-8.7228,-8.727,-8.7264,-8.7399,-8.742,-8.7353,-8.7353,-8.7354,0,-8.5809,-8.5898,-8.6016,-8.6083,-8.6186,-8.6265,-8.6365,-8.6432,-8.6524,-8.6607,-8.6663,-8.674,-8.6836,-8.6927,-8.6987,-8.7099,-8.7127,-8.7163,-8.7177,-8.7156,-8.7151,-8.719,-8.7184,-8.721,-8.721,-8.7209,-8.7208,0,-8.5729,-8.5897,-8.6009,-8.606,-8.6204,-8.6256,-8.6319,-8.6421,-8.6487,-8.6586,-8.6629,-8.674,-8.68,-8.6886,-8.696,-8.6941,-8.7101,-8.7089,-8.7137,-8.7135,-8.7164,-8.716,-8.7263,-8.7207,-8.7207,-8.7207,-8.7207,0,-8.5717,-8.5814,-8.5964,-8.6085,-8.6125,-8.62,-8.6312,-8.6395,-8.65,-8.6541,-8.662,-8.6665,-8.6771,-8.6754,-8.6902,-8.6854,-8.6911,-8.6956,-8.6961,-8.6971,-8.6948,-8.6989,-8.7082,-8.7093,-8.6988,-8.6986,-8.6984,0,-8.5602,-8.5775,-8.5842,-8.5984,-8.6075,-8.6128,-8.6213,-8.6303,-8.6366,-8.6453,-8.6523,-8.6622,-8.6627,-8.6669,-8.6732,-8.6807,-8.6869,-8.6803,-8.6927,-8.693,-8.6892,-8.698,-8.697,-8.7054,-8.6962,-8.6965,-8.6966,0,-8.5521,-8.5693,-8.5714,-8.5775,-8.5905,-8.5982,-8.608,-8.6194,-8.6248,-8.6344,-8.6427,-8.6571,-8.658,-8.6648,-8.6696,-8.6757,-8.683,-8.6758,-8.6761,-8.6765,-8.6959,-8.6949,-8.6963,-8.6849,-8.6852,-8.6855,-8.6949,0,-8.548,-8.5577,-8.5636,-8.5768,-8.5841,-8.5934,-8.6019,-8.6084,-8.6122,-8.6184,-8.631,-8.6405,-8.6522,-8.6561,-8.6598,-8.671,-8.6704,-8.6711,-8.6696,-8.6754,-8.6787,-8.6801,-8.664,-8.664,-8.664,-8.664,0,0,-8.5347,-8.5486,-8.5556,-8.5652,-8.5716,-8.5768,-8.586,-8.593,-8.6068,-8.6112,-8.6105,-8.6318,-8.6395,-8.6538,-8.6563,-8.6612,-8.6639,-8.6614,-8.6727,-8.6736,-8.6745,-8.6778,-8.6791,-8.6641,-8.6641,-8.6641,-8.6641,0,-8.5347,-8.5424,-8.5513,-8.5588,-8.57,-8.5761,-8.5783,-8.5903,-8.5947,-8.607,-8.611,-8.6195,-8.6363,-8.6439,-8.6499,-8.6601,-8.6625,-8.6632,-8.6656,-8.6724,-8.6733,-8.6742,-8.6776,-8.6788,-8.6641,-8.6641,-8.6641,0,-8.528,-8.5368,-8.542,-8.5569,-8.5643,-8.5735,-8.5741,-8.5838,-8.5908,-8.5958,-8.6078,-8.6142,-8.6251,-8.6375,-8.6435,-8.6429,-8.6607,-8.6567,-8.6569,-8.6575,-8.6646,-8.6657,-8.6666,-8.6538,-8.6537,-8.6536,0,0,-8.5269,-8.5359,-8.5477,-8.5575,-8.5619,-8.571,-8.5768,-8.5809,-8.5905,-8.5943,-8.6024,-8.6117,-8.6215,-8.6278,-8.6375,-8.65,-8.6528,-8.655,-8.6555,-8.6559,-8.6567,-8.6639,-8.6649,-8.6533,-8.6533,-8.6533,0,0,-8.5263,-8.5403,-8.5423,-8.5547,-8.5636,-8.5759,-8.5816,-8.5843,-8.5938,-8.5936,-8.6012,-8.604,-8.6158,-8.6219,-8.6173,-8.637,-8.6354,-8.6367,-8.6325,-8.6332,-8.6337,-8.6318,-8.619,0,0,0,0,0,-8.5305,-8.5386,-8.5403,-8.5436,-8.5623,-8.575,-8.5775,-8.5838,-8.5825,-8.5869,-8.5942,-8.5964,-8.621,-8.6171,-8.6203,-8.6252,-8.6498,-8.6504,-8.651,-8.6486,-8.6493,-8.6499,0,0,0,0,0,0,-8.5319,-8.5359,-8.5401,-8.5525,-8.5568,-8.5748,-8.5739,-8.5759,-8.5822,-8.5824,-8.5949,-8.5968,-8.6025,-8.6159,-8.6187,-8.6232,-8.6181,-8.6501,-8.6506,-8.6511,-8.6488,-8.6494,-8.6499,0,0,0,0,0,-8.533,-8.5362,-8.5646,-8.5525,-8.5562,-8.5667,-8.5737,-8.5753,-8.5803,-8.5915,-8.5934,-8.5845,-8.6025,-8.6053,-8.6176,-8.6218,-8.6162,-8.6172,-8.6504,-8.6508,-8.6512,-8.6491,0,0,0,0,0,0,-8.5338,-8.5378,-8.5655,-8.5668,-8.5498,-8.5658,-8.5685,-8.5748,-8.5891,-8.591,-8.5814,-8.5814,-8.6025,-8.6047,-8.6069,-8.6209,-8.6146,-8.6157,-8.6163,-8.6507,-8.6511,-8.6513,0,0,0,0,0,0,-8.5362,-8.539,-8.5662,-8.5624,-8.5634,-8.5649,-8.5674,-8.5788,-8.5892,-8.5782,-8.5787,-8.5812,-8.5994,-8.6043,-8.606,-8.6236,-8.6134,-8.6144,-8.6151,-8.6156,-8.651,-8.6513,0,0,0,0,0,0,-8.5375,-8.5399,-8.5621,-8.5629,-8.5637,-8.5797,-8.5752,-8.594,-8.5858,-8.5775,-8.5853,-8.585,-8.5989,-8.6008,-8.6054,-8.6223,-8.6232,-8.6135,-8.6141,-8.6146,-8.6149,0,0,0,0,0,0,0,-8.5385,-8.5207,-8.5573,-8.5632,-8.564,-8.5796,-8.5799,-8.5803,-8.5858,-8.5856,-8.5853,-8.5851,-8.6077,-8.6088,-8.6099,-8.6212,0,0,-8.6134,-8.6138,0,0,0,0,0,0,0,0,-8.5198,-8.5205,-8.5573,-8.5576,-8.5579,-8.5796,-8.5799,-8.5802,-8.5857,-8.5856,-8.5854,-8.5852,-8.608,-8.6089,-8.6098,0,0,0,0,0,0,0,0,0,0,0,0,0,0,0,-8.5573,-8.5576,0,-8.5797,-8.5799,-8.5802,-8.5857,-8.5856,-8.5854,-8.5853,-8.6083,-8.609,-8.6097,0,0,0,0,0,0,0,0,0,0,0,0,0,0,0,0,0,0,0,0,0,0,0,0,0,0,0,0,0,0,0,0,0,0,0,0,0,0,0,0,0,0,0,0,0,0,0,0,0,0,0,0,0,0,0,0,0,0,0,0,0,0,0,0,0,0,0,0,0]}],[{"header":{"parameterUnit":"kt","parameterCategory":2,"dx":1,"dy":1,"la1":30.253999710083008,"la2":30.299108505249023,"lo1":-89.0895004272461,"lo2":-89.04439544677734,"nx":28,"ny":28,"refTime":"2022-10-23T21:00:00:Z","depth":0,"parameterNumber":2,"parameterNumberName":"V-component_of_WINDS"},"data":[9.5982,9.6101,9.6105,9.6244,9.6271,9.6367,9.6402,9.6449,9.6486,9.6602,9.6669,9.6684,9.6723,9.6804,9.6877,9.6882,9.6914,9.6955,9.6955,9.6765,9.6739,9.6714,9.6686,9.6962,9.6962,9.7151,9.7153,9.7154,9.5849,9.5877,9.595,9.6024,9.6088,9.6051,9.6106,9.6162,9.6249,9.6295,9.636,9.6461,9.6541,9.6565,9.6643,9.67,9.6687,9.6722,9.6718,9.6725,9.6522,9.6492,9.6731,9.6731,9.6731,9.6731,9.6731,9.6731,9.5609,9.568,9.5726,9.5805,9.5843,9.5892,9.596,9.5977,9.6048,9.6128,9.6117,9.6214,9.626,9.6353,9.6385,9.6461,9.6423,9.6461,9.6471,9.6482,9.6494,9.6227,9.6474,9.6473,9.6473,9.6472,9.6472,0,9.5434,9.5432,9.5501,9.5573,9.563,9.5685,9.5735,9.5777,9.5771,9.583,9.5916,9.5966,9.6065,9.6146,9.6218,9.6242,9.6208,9.6204,9.6231,9.6239,9.624,9.6244,9.5915,9.6196,9.6194,9.6192,9.6191,9.619,9.5195,9.5275,9.5322,9.5371,9.5398,9.5476,9.5523,9.551,9.5561,9.562,9.5683,9.5764,9.5827,9.5964,9.598,9.6053,9.6038,9.6146,9.6048,9.6054,9.6043,9.6039,9.6048,9.6165,9.6168,9.6171,9.6173,0,9.506,9.5062,9.5187,9.5224,9.5236,9.5321,9.5353,9.5423,9.5429,9.5526,9.5547,9.5557,9.5641,9.5639,9.5733,9.573,9.5875,9.5857,9.5861,9.5858,9.5956,9.5948,9.627,9.6313,9.6024,9.6027,9.6029,0,9.4857,9.4962,9.4959,9.5031,9.5149,9.5132,9.5249,9.5265,9.5302,9.5378,9.5338,9.541,9.5394,9.5467,9.5462,9.5579,9.5595,9.5601,9.5598,9.5605,9.5605,9.5632,9.5619,9.5586,9.5584,9.5582,9.5581,0,9.4647,9.4766,9.4883,9.4911,9.4959,9.5015,9.5037,9.5077,9.5122,9.518,9.5209,9.5277,9.5315,9.5369,9.5362,9.5296,9.5504,9.5412,9.5509,9.551,9.5555,9.5553,9.5838,9.5579,9.5579,9.5578,9.5578,0,9.4482,9.454,9.4708,9.4748,9.478,9.4856,9.4922,9.4986,9.5031,9.5032,9.5076,9.5048,9.5148,9.5058,9.5196,9.5113,9.5153,9.5166,9.5173,9.5182,9.5081,9.5245,9.5515,9.5545,9.5192,9.5189,9.5186,0,9.4245,9.4412,9.4398,9.4557,9.4634,9.4584,9.4668,9.4707,9.4715,9.4782,9.4791,9.4866,9.4798,9.4821,9.489,9.4901,9.5009,9.4886,9.4986,9.499,9.4979,9.5227,9.5269,9.5457,9.5144,9.5149,9.5152,0,9.4059,9.4113,9.4143,9.4173,9.422,9.4283,9.4379,9.445,9.4496,9.4542,9.4624,9.4728,9.4682,9.4719,9.4702,9.4774,9.4936,9.4713,9.4714,9.4756,9.5121,9.5161,9.5193,9.4909,9.4914,9.4918,9.5119,0,9.3816,9.3897,9.3975,9.4039,9.4087,9.4184,9.4178,9.4229,9.4208,9.4213,9.4331,9.4359,9.4429,9.4461,9.444,9.4604,9.4576,9.4524,9.4436,9.4598,9.4664,9.4691,9.4338,9.4335,9.4333,9.4331,0,0,9.3588,9.3704,9.3682,9.3773,9.3812,9.3755,9.386,9.3891,9.3953,9.3982,9.3933,9.4084,9.4107,9.4251,9.4301,9.4328,9.4358,9.4299,9.452,9.4541,9.4561,9.4632,9.466,9.4327,9.4327,9.4326,9.4325,0,9.3498,9.3522,9.3625,9.3656,9.37,9.3699,9.3724,9.3757,9.3764,9.3877,9.3828,9.3897,9.4015,9.4049,9.4081,9.4282,9.4241,9.4304,9.4416,9.4498,9.4522,9.4543,9.4618,9.4644,9.432,9.432,9.432,0,9.3315,9.3339,9.3387,9.3469,9.3497,9.3575,9.3482,9.3567,9.3625,9.3556,9.3668,9.3683,9.3725,9.3859,9.3919,9.3875,9.4136,9.405,9.4064,9.4071,9.415,9.4179,9.4204,9.3865,9.3864,9.3862,0,0,9.3238,9.3311,9.3331,9.3449,9.347,9.3468,9.3507,9.3489,9.3528,9.3543,9.3559,9.3599,9.3668,9.3713,9.3777,9.3925,9.3933,9.3995,9.4016,9.4034,9.405,9.4133,9.4162,9.3857,9.3856,9.3856,0,0,9.32,9.3227,9.3198,9.3333,9.3372,9.3398,9.3471,9.3436,9.3492,9.3479,9.3452,9.3461,9.3586,9.36,9.3523,9.3745,9.3658,9.3676,9.3731,9.3758,9.3779,9.3773,9.343,0,0,0,0,0,9.3102,9.3224,9.3197,9.3218,9.332,9.3413,9.3426,9.3406,9.3346,9.3404,9.3413,9.3364,9.3554,9.3485,9.3507,9.3592,9.3781,9.3795,9.3807,9.3913,9.3941,9.3965,0,0,0,0,0,0,9.311,9.3136,9.3194,9.3225,9.3248,9.3408,9.3302,9.33,9.3339,9.3328,9.3364,9.3365,9.3349,9.3473,9.3493,9.3574,9.3423,9.3787,9.3798,9.3808,9.3923,9.3946,9.3966,0,0,0,0,0,9.3117,9.3138,9.3305,9.3223,9.3243,9.3246,9.3297,9.3295,9.3324,9.3336,9.3335,9.3306,9.3352,9.3367,9.3484,9.3566,9.3409,9.3416,9.3794,9.3803,9.3811,9.3934,0,0,0,0,0,0,9.3122,9.3136,9.3308,9.3313,9.3175,9.3236,9.3245,9.329,9.3328,9.3329,9.3275,9.3266,9.3356,9.3367,9.3379,9.3564,9.3397,9.3405,9.341,9.3801,9.3808,9.3814,0,0,0,0,0,0,9.3125,9.3141,9.3311,9.3251,9.3249,9.3228,9.3236,9.3331,9.333,9.3265,9.3259,9.3271,9.3337,9.3367,9.3376,9.3525,9.3389,9.3396,9.3401,9.3404,9.3806,9.3812,0,0,0,0,0,0,9.3131,9.3145,9.3249,9.3248,9.3246,9.3303,9.3311,9.3416,9.3279,9.3265,9.3266,9.326,9.3339,9.3348,9.3375,9.3521,9.3524,9.3389,9.3394,9.3398,9.34,0,0,0,0,0,0,0,9.3137,9.3047,9.3277,9.3246,9.3244,9.3362,9.3364,9.3365,9.3277,9.3272,9.3267,9.3262,9.3347,9.3355,9.3363,9.3517,0,0,9.3388,9.3392,0,0,0,0,0,0,0,0,9.3041,9.3046,9.3277,9.3279,9.328,9.3362,9.3363,9.3365,9.3277,9.3272,9.3268,9.3264,9.3349,9.3356,9.3362,0,0,0,0,0,0,0,0,0,0,0,0,0,0,0,9.3278,9.3278,0,9.3362,9.3363,9.3364,9.3276,9.3273,9.3269,9.3266,9.3351,9.3357,9.3362,0,0,0,0,0,0,0,0,0,0,0,0,0,0,0,0,0,0,0,0,0,0,0,0,0,0,0,0,0,0,0,0,0,0,0,0,0,0,0,0,0,0,0,0,0,0,0,0,0,0,0,0,0,0,0,0,0,0,0,0,0,0,0,0,0,0,0,0,0]}]]]